Manokotak, AK

11:47 AM AKDT on August 28, 2016 (GMT -0800)
Manokotak AP, Manokotak, AK

Weather History for PAMB - December, 2013

Change the Weather History Date:

Saturday, December 21, 2013

  Actual Average (PADL) Record (PADL)
Temperature  
Mean Temperature 30 °F -  
Max Temperature 35 °F 24 °F 43 °F (1963)
Min Temperature 24 °F 13 °F -30 °F (1957)
Degree Days  
Heating Degree Days 36    
Moisture  
Dew Point 32 °F    
Average Humidity 100    
Maximum Humidity 100    
Minimum Humidity 100    
Precipitation  
Precipitation 0.00 in - - ()
Sea Level Pressure  
Sea Level Pressure 29.45 in    
Wind  
Wind Speed 7 mph (South)    
Max Wind Speed 13 mph    
Max Gust Speed -    
Visibility 3 miles    
Events Fog , Rain , Snow    
Averages and records for this station are not official NWS values.
T = Trace of Precipitation, MM = Missing Value Source: NWS Daily Summary

Daily Weather History Graph

Daily Weather History Graph

Search for Another Location

Airport or City:

Trip Planner

Search our weather history database for the weather conditions in past years. The results will help you decide how hot, cold, wet, or windy it might be!

Date:

Astronomy

Dec. 21, 2013 Rise Set
Actual Time 10:29 AM AKST 4:40 PM AKST
Civil Twilight 9:34 AM AKST 5:34 PM AKST
Nautical Twilight 8:39 AM AKST 6:29 PM AKST
Astronomical Twilight 7:49 AM AKST 7:19 PM AKST
Moon 10:10 PM AKST (12/21) 12:03 PM AKST (12/21)
Length of Visible Light 8h 00m
Length of Day
6h 10m
Waning Gibbous, 83% of the Moon is Illuminated
Dec 21
Waning Gibbous
Dec 25
Last Quarter
Jan 1
New
Jan 7
First Quarter
Jan 15
Full

Hourly Weather History & Observations

Time (AKST) Temp. Windchill Dew Point Humidity Pressure Visibility Wind Dir Wind Speed Gust Speed Precip Events Conditions
12:19 AM 33.8 °F 26.4 °F 33.8 °F 100% 29.42 in 1.8 mi SSE 9.2 mph - 0.00 in   Overcast
12:47 AM 33.8 °F 25.8 °F 33.8 °F 100% 29.42 in 2.5 mi SSE 10.4 mph - 0.00 in   Overcast
12:56 AM 34.0 °F 25.5 °F 34.0 °F 100% 29.44 in 3.0 mi SSE 11.5 mph - 0.00 in   Overcast
1:03 AM 35.6 °F 27.1 °F 35.6 °F 100% 29.43 in 2.5 mi SSE 12.7 mph - 0.00 in Rain Light Rain
1:13 AM 33.8 °F 25.3 °F 33.8 °F 100% 29.43 in 3.0 mi SSE 11.5 mph - 0.00 in Rain Light Rain
1:35 AM 33.8 °F 27.0 °F 33.8 °F 100% 29.42 in 3.0 mi SE 8.1 mph - 0.00 in   Overcast
1:56 AM 34.0 °F 27.2 °F 34.0 °F 100% 29.44 in 2.5 mi SE 8.1 mph - 0.00 in   Overcast
2:07 AM 33.8 °F 27.0 °F 33.8 °F 100% 29.42 in 1.5 mi SSE 8.1 mph - N/A   Overcast
2:30 AM 33.8 °F 27.0 °F 33.8 °F 100% 29.42 in 2.0 mi SSE 8.1 mph - N/A   Overcast
2:37 AM 33.8 °F 27.0 °F 33.8 °F 100% 29.42 in 1.8 mi SSE 8.1 mph - N/A   Overcast
2:49 AM 33.8 °F 27.0 °F 33.8 °F 100% 29.42 in 3.0 mi SSE 8.1 mph - N/A   Overcast
3:16 AM 33.8 °F 28.6 °F 33.8 °F 100% 29.42 in 1.8 mi SE 5.8 mph - N/A   Overcast
3:23 AM 33.8 °F 28.6 °F 33.8 °F 100% 29.42 in 1.0 mi SE 5.8 mph - N/A   Overcast
3:47 AM 33.8 °F 28.6 °F 33.8 °F 100% 29.42 in 1.5 mi SE 5.8 mph - N/A   Overcast
3:56 AM 32.9 °F 27.5 °F 32.9 °F 100% 29.43 in 2.5 mi ESE 5.8 mph - N/A   Overcast
4:03 AM 33.8 °F 29.6 °F 33.8 °F 100% 29.42 in 4.0 mi SE 4.6 mph - N/A   Overcast
4:45 AM 33.8 °F 27.7 °F 33.8 °F 100% 29.42 in 7.0 mi SE 6.9 mph - 0.00 in   Overcast
4:56 AM 32.9 °F 26.7 °F 32.9 °F 100% 29.43 in 4.0 mi SE 6.9 mph - 0.00 in Rain Light Rain
5:56 AM 33.8 °F 28.6 °F 33.8 °F 100% 29.42 in 7.0 mi SE 5.8 mph - N/A Rain Light Rain
6:07 AM 33.8 °F 27.7 °F 33.8 °F 100% 29.42 in 5.0 mi SSE 6.9 mph - 0.00 in Rain Light Rain
6:46 AM 33.8 °F 30.8 °F 33.8 °F 100% 29.42 in 6.0 mi SE 3.5 mph - 0.00 in Rain Light Rain
6:56 AM 32.9 °F 28.5 °F 32.9 °F 100% 29.43 in 5.0 mi SE 4.6 mph - 0.00 in Rain Light Rain
7:09 AM 33.8 °F 29.6 °F 33.8 °F 100% 29.42 in 5.0 mi SE 4.6 mph - 0.00 in Rain Light Rain
7:30 AM 33.8 °F 28.6 °F 33.8 °F 100% 29.42 in 2.0 mi SE 5.8 mph - 0.00 in Rain Light Rain
7:40 AM 33.8 °F 29.6 °F 33.8 °F 100% 29.42 in 1.5 mi SE 4.6 mph - 0.00 in Rain Light Rain
7:56 AM 32.9 °F 29.8 °F 32.9 °F 100% 29.44 in 2.0 mi SE 3.5 mph - 0.00 in Rain Light Rain
8:07 AM 33.8 °F 30.8 °F 33.8 °F 100% 29.42 in 3.0 mi ESE 3.5 mph - 0.00 in Rain Light Rain
8:13 AM 33.8 °F 29.6 °F 33.8 °F 100% 29.42 in 2.5 mi ESE 4.6 mph - 0.00 in Rain Light Rain
8:25 AM 33.8 °F 30.8 °F 33.8 °F 100% 29.42 in 3.0 mi ESE 3.5 mph - 0.00 in Rain Light Rain
8:32 AM 33.8 °F 29.6 °F 33.8 °F 100% 29.42 in 2.0 mi ESE 4.6 mph - 0.00 in Rain Light Rain
8:40 AM 33.8 °F 28.6 °F 33.8 °F 100% 29.42 in 1.2 mi ESE 5.8 mph - 0.00 in Rain Light Rain
8:56 AM 33.8 °F 29.6 °F 33.8 °F 100% 29.42 in 1.0 mi ESE 4.6 mph - N/A Rain Light Rain
9:19 AM 33.8 °F 28.6 °F 33.8 °F 100% 29.43 in 1.2 mi SE 5.8 mph - 0.00 in Rain Light Rain
9:28 AM 33.8 °F 27.7 °F 33.8 °F 100% 29.43 in 1.0 mi SSE 6.9 mph - 0.00 in Rain Light Rain
9:46 AM 33.8 °F 27.7 °F 33.8 °F 100% 29.43 in 1.2 mi SSE 6.9 mph - 0.00 in Rain Light Rain
9:56 AM 32.9 °F 26.7 °F 32.9 °F 100% 29.44 in 1.5 mi SSE 6.9 mph - 0.00 in Rain Light Rain
10:18 AM 33.8 °F 27.7 °F 33.8 °F 100% 29.43 in 1.2 mi SSE 6.9 mph - 0.00 in Rain Light Rain
10:35 AM 33.8 °F 28.6 °F 33.8 °F 100% 29.43 in 1.0 mi SSE 5.8 mph - 0.00 in Rain Light Rain
10:56 AM 32.9 °F 28.5 °F 32.9 °F 100% 29.45 in 0.8 mi SE 4.6 mph - 0.00 in   Overcast
11:56 AM 33.8 °F 27.0 °F 33.8 °F 100% 29.44 in 0.8 mi SSE 8.1 mph - N/A Rain Light Rain
12:37 PM 33.8 °F 30.8 °F 33.8 °F 100% 29.43 in 0.5 mi SSE 3.5 mph - 0.00 in Fog , Rain Light Rain
12:56 PM 32.9 °F - 32.9 °F 100% 29.45 in 0.8 mi Calm Calm - 0.00 in Rain Light Rain
1:07 PM 33.8 °F - 33.8 °F 100% 29.43 in 0.5 mi Calm Calm - 0.00 in Fog , Rain Light Rain
1:15 PM 33.8 °F 30.8 °F 33.8 °F 100% 29.44 in 0.2 mi West 3.5 mph - 0.00 in Fog , Rain Light Rain
1:27 PM 33.8 °F - 33.8 °F 100% 29.43 in 0.5 mi Calm Calm - 0.00 in Fog , Rain Light Rain
1:56 PM 32.9 °F 29.8 °F 32.9 °F 100% 29.45 in 0.2 mi SSE 3.5 mph - 0.00 in Fog , Rain Light Rain
2:56 PM 33.8 °F 29.6 °F 33.8 °F 100% 29.43 in 0.2 mi South 4.6 mph - N/A Fog , Rain Light Rain
3:27 PM 32.0 °F 27.5 °F 32.0 °F 100% 29.42 in 0.2 mi South 4.6 mph - 0.00 in Fog Fog
3:56 PM 32.0 °F 27.5 °F 32.0 °F 100% 29.44 in 0.2 mi SSW 4.6 mph - 0.00 in Fog Fog
4:36 PM 30.2 °F 25.4 °F 30.2 °F 100% 29.43 in 0.2 mi SW 4.6 mph - 0.00 in Fog Light Freezing Fog
4:49 PM 30.2 °F 25.4 °F 30.2 °F 100% 29.43 in 0.2 mi SW 4.6 mph - 0.00 in Fog , Snow Light Snow
4:56 PM 31.1 °F 26.4 °F 31.1 °F 100% 29.44 in 0.5 mi SW 4.6 mph - 0.00 in Fog , Snow Light Snow
5:12 PM 32.0 °F 27.5 °F 32.0 °F 100% 29.43 in 1.0 mi WSW 4.6 mph - 0.00 in Snow Light Snow
5:16 PM 32.0 °F 26.4 °F 32.0 °F 100% 29.43 in 1.5 mi West 5.8 mph - 0.00 in Snow Light Snow
5:22 PM 32.0 °F 25.6 °F 32.0 °F 100% 29.43 in 3.0 mi West 6.9 mph - 0.00 in Snow Light Snow
5:43 PM 30.2 °F 21.9 °F 30.2 °F 100% 29.43 in 7.0 mi WNW 9.2 mph - 0.00 in Snow Light Snow
5:56 PM 30.2 °F 24.3 °F 30.2 °F 100% 29.43 in 6.0 mi WNW 5.8 mph - N/A Snow Light Snow
6:24 PM 30.2 °F 22.6 °F 30.2 °F 100% 29.44 in 6.0 mi West 8.1 mph - 0.00 in Snow Light Snow
6:56 PM 30.0 °F 22.4 °F 30.0 °F 100% 29.47 in 9.0 mi West 8.1 mph - 0.00 in   Overcast
7:29 PM 28.4 °F 19.1 °F 28.4 °F 100% 29.46 in 9.0 mi NW 10.4 mph - N/A   Overcast
7:56 PM 29.1 °F 22.1 °F 29.1 °F 100% 29.49 in 1.8 mi WNW 6.9 mph - 0.00 in   Overcast
7:59 PM 28.4 °F 21.2 °F 28.4 °F 100% 29.47 in 2.0 mi WNW 6.9 mph - 0.00 in   Overcast
8:26 PM 28.4 °F 24.6 °F 28.4 °F 100% 29.48 in 3.0 mi WNW 3.5 mph - 0.00 in   Overcast
8:33 PM 28.4 °F - 28.4 °F 100% 29.48 in 2.5 mi Calm Calm - 0.00 in   Overcast
8:39 PM 28.4 °F - 28.4 °F 100% 29.49 in 1.8 mi Calm Calm - 0.01 in   Overcast
8:46 PM 28.4 °F 24.6 °F 28.4 °F 100% 29.49 in 2.0 mi West 3.5 mph - 0.01 in   Overcast
8:56 PM 28.4 °F 22.2 °F 28.4 °F 100% 29.50 in 2.5 mi West 5.8 mph - N/A Snow Light Snow
9:02 PM 28.4 °F 23.3 °F 28.4 °F 100% 29.50 in 4.0 mi West 4.6 mph - 0.00 in Snow Light Snow
9:30 PM 26.6 °F 18.2 °F 26.6 °F 100% 29.51 in 5.0 mi WNW 8.1 mph - 0.00 in Snow Light Snow
9:56 PM 26.1 °F 19.4 °F 26.1 °F 100% 29.54 in 8.0 mi WNW 5.8 mph - 0.00 in   Overcast
10:43 PM 26.6 °F 20.0 °F 26.6 °F 100% 29.54 in 2.5 mi West 5.8 mph - 0.00 in   Overcast
10:56 PM 25.2 °F 17.3 °F 25.2 °F 100% 29.57 in 3.0 mi West 6.9 mph - 0.00 in   Overcast
11:23 PM 24.8 °F 16.1 °F 24.8 °F 100% 29.57 in 2.5 mi WNW 8.1 mph - 0.00 in   Overcast
11:56 PM 24.8 °F 16.1 °F 24.8 °F 100% 29.59 in 2.5 mi WNW 8.1 mph - N/A   Overcast